Home > Weather > Arviat > Past weeks

Flag for Canada Weather for the Past 2 Weeks in Arviat, Nunavut, Canada

Now
-29 °F

Snow. Ice fog.


Feels Like: -63 °F
Forecast: -29 / -25 °F
Wind: 25 mph from North

Location: Arviat Airport

Current Time: Feb 11, 2016 at 12:47:07 AM

Latest Report: Feb 11, 2016 at 12:00 AM


Visibility: 0 mi

Pressure: 30.06 "Hg

Humidity: 74%

Dew point: -35 °F

Location of ArviatLocation

Historic Weather in Arviat — Graph

°F

Arviat Temperature Yesterday

Maximum temperature yesterday: -26 °F (at 1:57 AM)
Minimum temperature yesterday: -29 °F (at 12:00 AM)
Average temperature yesterday: -26 °F

High & Low Weather Summary for the Past Weeks

 TemperatureHumidityPressure
High3 °F (Jan 29, 5:00 PM)92% (Jan 29, 12:00 AM)30.45 "Hg (Jan 29, 12:00 AM)
Low-40 °F (Feb 5, 1:00 AM)58% (Feb 4, 11:00 PM)29.39 "Hg (Jan 29, 4:00 PM)
Average-23 °F73%30.02 "Hg
* Reported Jan 26 11:00 PM — Feb 10 11:00 PM, Arviat, Weather by CustomWeather, © 2016

Note: Actual official high and low records may vary slightly from our data, if they occured in-between our weather recording intervals... More about our weather records

Advertising

Arviat Weather History for the Previous 24 Hours

 ConditionsComfort  
Time TempWeatherWind HumidityBarometerVisibility
11:00 PM
Wed, Feb 10
-27 °FLight snow. Ice fog.21 mph67%30.06 "Hg1 mi
10:03 PM-27 °FClear.23 mph74%30.06 "Hg1 mi
9:04 PM-26 °FHaze.21 mph67%30.07 "Hg1 mi
8:58 PM-26 °FClear.16 mph67%30.08 "Hg2 mi
8:00 PM-26 °FHaze.20 mph67%30.10 "Hg3 mi
7:01 PM-26 °FClear.18 mph67%30.11 "Hg2 mi
6:00 PM-26 °FClear.20 mph67%30.13 "Hg3 mi
5:00 PM-27 °FSnow flurries. Clear.13 mph74%30.16 "Hg2 mi
4:00 PM-26 °FSnow flurries. Low level haze.17 mph67%30.17 "Hg5 mi
3:00 PM-26 °FSnow flurries. Low level haze.14 mph67%30.17 "Hg1 mi
2:00 PM-26 °FSnow flurries. Sunny.18 mph67%30.18 "Hg1 mi
1:00 PM-27 °FSnow flurries. Sunny.22 mph67%30.18 "Hg1 mi
12:00 PM-27 °FSnow flurries. Sunny.21 mph67%30.19 "Hg1 mi
11:00 AM-27 °FSnow flurries. Sunny.22 mph67%30.21 "Hg1 mi
10:00 AM-27 °FSnow flurries. Sunny.18 mph67%30.21 "Hg3 mi
9:00 AM-27 °FSnow flurries. Sunny.17 mph67%30.22 "Hg5 mi
8:56 AM-27 °FSnow flurries. Sunny.16 mph67%30.22 "Hg5 mi
8:00 AM-27 °FSnow flurries. Clear.17 mph74%30.22 "Hg2 mi
7:00 AM-26 °FClear.23 mph75%30.22 "Hg7 mi
6:00 AM-26 °FClear.18 mph75%30.24 "Hg5 mi
5:59 AM-26 °FClear.18 mph67%30.24 "Hg5 mi
5:00 AM-26 °FClear.16 mph67%30.25 "Hg9 mi
4:00 AM-26 °FClear.14 mph75%30.24 "Hg7 mi
3:00 AM-26 °FClear.18 mph75%30.25 "Hg2 mi
2:54 AM-26 °FClear.21 mph75%30.25 "Hg2 mi
2:04 AM-27 °FClear.13 mph74%30.26 "Hg5 mi
1:57 AM-26 °FClear.16 mph67%30.27 "Hg6 mi
1:00 AM-27 °FLight snow. Passing clouds.15 mph74%30.26 "Hg4 mi
12:00 AM-29 °FLight snow. Passing clouds.14 mph74%30.28 "Hg4 mi
Weather by CustomWeather, © 2016

See weather overviewHow to use our weather pages